This demonstration page uses our WeatherBlox Daily Observations layout. Learn more.

Left ArrowRight Arrow

44.31136, -96.79839

Hourly Observations for August 15, 2017

Temp ( °F °C ) Dew Point ( °F °C ) Humidity (%) Winds ( mph kmh ) Pressure ( in mb ) Visibility ( mi km ) Precip ( " mm )
12:56 am 00:56 Clear 58 14.4 57 13.9 97 97 Calm 29.95 1014 N/A 0.00 0.00
1:56 am 01:56 Clear 57 13.9 57 13.9 100 100 E 3 6 29.96 1014 N/A 0.00 0.00
2:56 am 02:56 Clear 59 15 58 14.4 96 96 E 6 9 29.92 1013 N/A 0.00 0.00
3:56 am 03:56 Clear 59 15 58 14.4 96 96 E 8 13 29.90 1013 N/A 0.00 0.00
4:56 am 04:56 Clear 60 15.6 57 13.9 90 90 E 6 9 29.94 1014 N/A 0.00 0.00
5:56 am 05:56 Mostly Clear 59 15 57 13.9 93 93 SE 6 9 29.96 1015 N/A 0.00 0.00
6:56 am 06:56 Sunny 59 15 58 14.4 96 96 SE 7 11 29.97 1015 N/A 0.00 0.00
7:56 am 07:56 Sunny 60 15.6 58 14.4 93 93 undefined N/A 29.96 1015 N/A 0.00 0.00
8:56 am 08:56 Mostly Sunny 62 16.7 59 15 90 90 SE 7 11 29.97 1015 N/A 0.00 0.00
9:05 am 09:05 Partly Cloudy 63 17 59 15 88 88 SE 7 11 29.91 1013 N/A 0.00 0.00
9:32 am 09:32 Mostly Cloudy 63 17 61 16 94 94 ESE 9 15 29.91 1013 N/A 0.00 0.00
9:54 am 09:54 Partly Cloudy 64 18 61 16 88 88 ESE 12 19 29.91 1013 N/A 0.00 0.00
9:56 am 09:56 Partly Cloudy 64 17.8 60 15.6 87 87 ESE 13 20 29.96 1015 N/A 0.00 0.00
10:56 am 10:56 Partly Cloudy 67 19.4 61 16.1 81 81 ESE 15 24 29.93 1014 N/A 0.00 0.00
11:56 am 11:56 Mostly Sunny 69 20.6 61 16.1 76 76 SE 21 33 29.94 1014 N/A 0.00 0.00
12:32 pm 12:32 Mostly Cloudy 70 21 63 17 78 78 SSE 20 31 29.88 1012 N/A 0.00 0.00
12:56 pm 12:56 Mostly Cloudy 71 21.7 61 16.1 71 71 SE 16 26 29.96 1014 N/A 0.00 0.00
1:56 pm 13:56 Mostly Cloudy 72 22.2 62 16.7 71 71 SE 15 24 29.93 1014 N/A 0.00 0.00
2:56 pm 14:56 Mostly Cloudy 71 21.7 62 16.7 73 73 SSE 15 24 29.93 1014 N/A 0.00 0.00
3:56 pm 15:56 Partly Cloudy 71 21.7 62 16.7 73 73 ESE 12 19 29.92 1013 N/A 0.00 0.00
4:18 pm 16:18 Mostly Cloudy 72 22 63 17 73 73 SE 13 20 29.85 1011 N/A 0.00 0.00
4:56 pm 16:56 Mostly Cloudy 70 21.1 62 16.7 76 76 SSE 12 19 29.94 1014 N/A 0.00 0.00
5:07 pm 17:07 Mostly Sunny 70 21 63 17 78 78 SSE 12 19 29.85 1011 N/A 0.00 0.00
5:56 pm 17:56 Partly Cloudy 69 20.6 62 16.7 78 78 SE 10 17 29.92 1013 N/A 0.00 0.00
6:56 pm 18:56 Mostly Sunny 68 20 62 16.7 81 81 ESE 8 13 29.88 1012 N/A 0.00 0.00
7:20 pm 19:20 Mostly Cloudy 68 20 63 17 83 83 ESE 14 22 29.80 1009 N/A 0.00 0.00
7:56 pm 19:56 Cloudy 67 19.4 62 16.7 84 84 ESE 14 22 29.88 1012 N/A 0.00 0.00
8:56 pm 20:56 Cloudy 66 18.9 62 16.7 87 87 SE 9 15 29.90 1013 N/A 0.00 0.00
9:56 pm 21:56 Cloudy 65 18.3 62 16.7 90 90 ESE 13 20 29.89 1012 N/A 0.00 0.00
10:56 pm 22:56 Cloudy 65 18.3 62 16.7 90 90 SE 10 17 29.91 1013 N/A 0.00 0.00
11:14 pm 23:14 Cloudy 64 18 63 17 94 94 SE 8 13 29.85 1011 N/A 0.00 0.00
11:56 pm 23:56 Cloudy 65 18.3 62 16.7 90 90 SE 9 15 29.88 1012 N/A 0.00 0.00

Powered by AerisWeather